Weather History for LSGG - October, 2013

Change the Weather History Date:

Saturday, October 26, 2013

  Actual Average Record
Temperature  
Mean Temperature 60 °F -  
Max Temperature 72 °F 47 °F 72 °F (2013)
Min Temperature 47 °F 36 °F 23 °F (2003)
Degree Days  
Heating Degree Days 6    
Growing Degree Days 10 (Base 50)    
Moisture  
Dew Point 53 °F    
Average Humidity 83    
Maximum Humidity 100    
Minimum Humidity 41    
Precipitation  
Precipitation 0.00 in 0.11 in - ()
Sea Level Pressure  
Sea Level Pressure 30.09 in    
Wind  
Wind Speed 3 mph ()    
Max Wind Speed 9 mph    
Max Gust Speed -    
Visibility 6.8 miles    
Events Fog    
Averages and records for this station are not official NWS values.
T = Trace of Precipitation, MM = Missing Value Source: Averaged Metar Reports

Daily Weather History Graph

Daily Weather History Graph

Search for Another Location

Airport or City:

Trip Planner

Search our weather history database for the weather conditions in past years. The results will help you decide how hot, cold, wet, or windy it might be!

Date:

Astronomy

Oct. 26, 2013 Rise Set
Actual Time 8:07 AM CEST 6:30 PM CEST
Civil Twilight 7:37 AM CEST 7:01 PM CEST
Nautical Twilight 7:01 AM CEST 7:36 PM CEST
Astronomical Twilight 6:27 AM CEST 8:10 PM CEST
Moon No Moon Rise 2:18 PM CEST (10/26)
Length of Visible Light 11h 24m
Length of Day
10h 22m
Waning Gibbous, 55% of the Moon is Illuminated
Oct 26
Waning Gibbous
Oct 27
Last Quarter
Nov 3
New
Nov 10
First Quarter
Nov 17
Full

Hourly Weather History & Observations

Time (CEST) Temp. Dew Point Humidity Pressure Visibility Wind Dir Wind Speed Gust Speed Precip Events Conditions
12:00 AM 52 °F 50 °F 90% 30.11 in - WNW 3.5 mph - -  
12:20 AM 51.8 °F 51.8 °F 100% 30.09 in - Variable 2.3 mph - N/A   Clear
12:50 AM 51.8 °F 51.8 °F 100% 30.09 in - Variable 1.2 mph - N/A   Clear
1:00 AM 51 °F 49 °F 90% 30.11 in - WNW 1.2 mph - -  
1:20 AM 50.0 °F 50.0 °F 100% 30.09 in 6.2 mi NW 1.2 mph - N/A Fog Shallow Fog
1:50 AM 50.0 °F 50.0 °F 100% 30.09 in 6.2 mi Variable 1.2 mph - N/A Fog Shallow Fog
2:00 AM 49 °F 47 °F 92% 30.12 in 11 mi WNW 2.3 mph - - Fog Patches of Fog
2:20 AM 48.2 °F 48.2 °F 100% 30.09 in 6.2 mi Variable 1.2 mph - N/A Fog Shallow Fog
2:50 AM 48.2 °F 48.2 °F 100% 30.09 in - Calm Calm - N/A   Clear
3:00 AM 50 °F 48 °F 90% 30.12 in - NW 1.2 mph - -  
3:50 AM 48.2 °F 48.2 °F 100% 30.09 in 6.2 mi Calm Calm - N/A Fog Shallow Fog
4:00 AM 47 °F 46 °F 95% 30.13 in - NNE 1.2 mph - -  
4:20 AM 48.2 °F 48.2 °F 100% 30.09 in 6.2 mi Calm Calm - N/A Fog Shallow Fog
4:50 AM 48.2 °F 48.2 °F 100% 30.09 in 6.2 mi Calm Calm - N/A Fog Shallow Fog
5:20 AM 48.2 °F 48.2 °F 100% 30.09 in 6.2 mi Calm Calm - N/A Fog Shallow Fog
5:50 AM 48.2 °F 48.2 °F 100% 30.12 in 6.2 mi Variable 1.2 mph - N/A Fog Shallow Fog
6:00 AM 48 °F 46 °F 92% 30.14 in - NW 2.3 mph - -  
6:20 AM 48.2 °F 48.2 °F 100% 30.12 in 6.2 mi Calm Calm - N/A Fog Shallow Fog
6:50 AM 48.2 °F 48.2 °F 100% 30.12 in 6.2 mi Variable 2.3 mph - N/A Fog Shallow Fog
7:00 AM 48 °F 47 °F 94% 30.15 in - North 2.3 mph - -  
7:20 AM 48.2 °F 48.2 °F 100% 30.12 in 6.2 mi Calm Calm - N/A Fog Shallow Fog
7:50 AM 48.2 °F 48.2 °F 100% 30.12 in 6.2 mi Variable 2.3 mph - N/A Fog Shallow Fog
8:00 AM 50 °F 48 °F 90% 30.14 in 11 mi NNE 1.2 mph - - Fog Patches of Fog
8:20 AM 48.2 °F 48.2 °F 100% 30.12 in 6.2 mi Variable 1.2 mph - N/A Fog Shallow Fog
8:50 AM 48.2 °F 48.2 °F 100% 30.15 in 6.2 mi Calm Calm - N/A Fog Shallow Fog
9:00 AM 50 °F 48 °F 89% 30.17 in - NW 2.3 mph - -  
9:20 AM 50.0 °F 50.0 °F 100% 30.15 in - SSW 4.6 mph - N/A   Clear
9:50 AM 51.8 °F 51.8 °F 100% 30.15 in - Variable 1.2 mph - N/A   Clear
10:00 AM 54 °F 52 °F 90% 30.16 in - NE 1.2 mph - -  
10:20 AM 59.0 °F 55.4 °F 88% 30.15 in - Calm Calm - N/A   Clear
10:50 AM 62.6 °F 57.2 °F 82% 30.15 in - Variable 2.3 mph - N/A   Clear
11:20 AM 64.4 °F 57.2 °F 77% 30.15 in - SSE 3.5 mph - N/A   Clear
11:50 AM 66.2 °F 57.2 °F 73% 30.15 in - WSW 3.5 mph - N/A   Clear
12:00 PM 64 °F 55 °F 65% 30.13 in - WSW 3.5 mph - -  
12:20 PM 66.2 °F 57.2 °F 73% 30.15 in - Variable 3.5 mph - N/A   Clear
12:50 PM 68.0 °F 55.4 °F 64% 30.15 in - ENE 3.5 mph - N/A   Clear
1:00 PM 67 °F 56 °F 58% 30.11 in - South 2.3 mph - -  
1:20 PM 69.8 °F 57.2 °F 64% 30.12 in - Variable 3.5 mph - N/A   Clear
1:50 PM 69.8 °F 57.2 °F 64% 30.12 in - SSW 5.8 mph - N/A   Clear
2:00 PM 70 °F 55 °F 49% 30.08 in 37 mi SW 6.9 mph - -   Clear
2:20 PM 71.6 °F 55.4 °F 57% 30.09 in - SSW 8.1 mph - N/A   Clear
2:50 PM 71.6 °F 55.4 °F 57% 30.09 in - SSW 6.9 mph - N/A   Clear
3:00 PM 72 °F 54 °F 42% 30.04 in - SW 5.8 mph - -  
3:20 PM 73.4 °F 55.4 °F 53% 30.09 in - SSW 6.9 mph - N/A   Clear
3:50 PM 73.4 °F 55.4 °F 53% 30.06 in - SW 6.9 mph - N/A   Clear
4:00 PM 72 °F 53 °F 41% 30.03 in - SW 9.2 mph - -  
4:20 PM 68.0 °F 57.2 °F 68% 30.06 in - SSW 8.1 mph - N/A   Clear
4:50 PM 66.2 °F 57.2 °F 73% 30.06 in - Variable 4.6 mph - N/A   Clear
5:20 PM 69.8 °F 57.2 °F 64% 30.06 in - Variable 2.3 mph - N/A   Clear
5:50 PM 66.2 °F 59.0 °F 78% 30.06 in - WSW 5.8 mph - N/A   Clear
6:00 PM 63 °F 56 °F 72% 30.04 in - West 4.6 mph - -  
6:20 PM 60.8 °F 57.2 °F 88% 30.06 in - Variable 2.3 mph - N/A   Clear
6:50 PM 64.4 °F 57.2 °F 77% 30.06 in - SW 5.8 mph - N/A   Clear
7:00 PM 60 °F 56 °F 83% 30.05 in - SW 6.9 mph - -  
7:20 PM 59.0 °F 57.2 °F 94% 30.06 in - WSW 4.6 mph - N/A   Clear
7:50 PM 62.6 °F 57.2 °F 82% 30.06 in - SW 5.8 mph - N/A   Clear
8:00 PM 63 °F 56 °F 71% 30.05 in 31 mi WSW 5.8 mph - -   Clear
8:20 PM 60.8 °F 57.2 °F 88% 30.06 in - WSW 5.8 mph - N/A   Clear
8:50 PM 64.4 °F 59.0 °F 83% 30.04 in - West 4.6 mph - N/A   Clear
9:00 PM 61 °F 56 °F 80% 30.04 in - WSW 5.8 mph - -  
9:20 PM 60.8 °F 57.2 °F 88% 30.04 in - WSW 5.8 mph - N/A   Clear
9:50 PM 59.0 °F 57.2 °F 94% 30.06 in - SW 4.6 mph - N/A   Clear
10:00 PM 63 °F 57 °F 76% 30.03 in - SSW 8.1 mph - -  
10:20 PM 62.6 °F 59.0 °F 88% 30.04 in - WSW 6.9 mph - N/A   Clear
10:50 PM 60.8 °F 59.0 °F 94% 30.04 in - SW 5.8 mph - N/A   Clear
11:20 PM 62.6 °F 59.0 °F 88% 30.04 in - SW 6.9 mph - N/A   Clear
11:50 PM 62.6 °F 59.0 °F 88% 30.04 in - SSW 9.2 mph - N/A   Clear